Wetterdaten: Mittwoch, 14.10.2015
Datum Zeit Temperatur Luftfeuchte Luftdruck Regen Wind Richtung Richtung Sonnenschein ET UV Solar Taupunkt Windchill Windben
14.10.2015 00:00 2,9 C 78 % 1018,4 hPa 0,0 l/m 0,0 km/h (0 Bft) NO 51 0 min 0,000 mm 0,0 UV-I 0 W/m -0,5 C 2,9 C 0,0 km/h (0 Bft)
14.10.2015 00:05 2,9 C 78 % 1018,5 hPa 0,2 l/m 0,8 km/h (0 Bft) O-NO 75 0 min 0,000 mm 0,0 UV-I 0 W/m -0,5 C 2,9 C 4,8 km/h (1 Bft)
14.10.2015 00:10 2,9 C 78 % 1018,5 hPa 0,0 l/m 0,8 km/h (0 Bft) O-NO 62 0 min 0,000 mm 0,0 UV-I 0 W/m -0,5 C 2,9 C 6,4 km/h (2 Bft)
14.10.2015 00:15 2,9 C 78 % 1018,5 hPa 0,0 l/m 1,1 km/h (1 Bft) NO 49 0 min 0,000 mm 0,0 UV-I 0 W/m -0,5 C 2,9 C 8,0 km/h (2 Bft)
14.10.2015 00:20 2,9 C 78 % 1018,6 hPa 0,0 l/m 0,0 km/h (0 Bft) O-NO 59 0 min 0,000 mm 0,0 UV-I 0 W/m -0,5 C 2,9 C 1,6 km/h (1 Bft)
14.10.2015 00:25 3,0 C 78 % 1018,6 hPa 0,0 l/m 0,0 km/h (0 Bft) O-NO 59 0 min 0,000 mm 0,0 UV-I 0 W/m -0,5 C 3,0 C 1,6 km/h (1 Bft)
14.10.2015 00:30 2,9 C 78 % 1018,6 hPa 0,0 l/m 1,4 km/h (1 Bft) O-NO 57 0 min 0,000 mm 0,0 UV-I 0 W/m -0,5 C 2,9 C 8,0 km/h (2 Bft)
14.10.2015 00:35 3,0 C 78 % 1018,6 hPa 0,0 l/m 0,2 km/h (0 Bft) O-NO 59 0 min 0,000 mm 0,0 UV-I 0 W/m -0,5 C 3,0 C 4,8 km/h (1 Bft)
14.10.2015 00:40 3,0 C 78 % 1018,7 hPa 0,0 l/m 0,4 km/h (0 Bft) O-NO 65 0 min 0,000 mm 0,0 UV-I 0 W/m -0,5 C 3,0 C 3,2 km/h (1 Bft)
14.10.2015 00:45 3,0 C 78 % 1018,6 hPa 0,0 l/m 0,0 km/h (0 Bft) O-NO 65 0 min 0,000 mm 0,0 UV-I 0 W/m -0,5 C 3,0 C 0,0 km/h (0 Bft)
14.10.2015 00:50 3,0 C 78 % 1018,6 hPa 0,0 l/m 1,3 km/h (1 Bft) NO 38 0 min 0,000 mm 0,0 UV-I 0 W/m -0,5 C 3,0 C 6,4 km/h (2 Bft)
14.10.2015 00:55 3,0 C 78 % 1018,5 hPa 0,0 l/m 0,1 km/h (0 Bft) NO 40 0 min 0,000 mm 0,0 UV-I 0 W/m -0,5 C 3,0 C 1,6 km/h (1 Bft)
14.10.2015 01:00 2,9 C 78 % 1018,5 hPa 0,0 l/m 0,1 km/h (0 Bft) NO 40 0 min 0,000 mm 0,0 UV-I 0 W/m -0,5 C 2,9 C 1,6 km/h (1 Bft)
14.10.2015 01:05 2,9 C 78 % 1018,5 hPa 0,0 l/m 0,1 km/h (0 Bft) N-NO 20 0 min 0,000 mm 0,0 UV-I 0 W/m -0,5 C 2,9 C 1,6 km/h (1 Bft)
14.10.2015 01:10 2,9 C 78 % 1018,5 hPa 0,0 l/m 0,0 km/h (0 Bft) N-NO 20 0 min 0,000 mm 0,0 UV-I 0 W/m -0,5 C 2,9 C 0,0 km/h (0 Bft)
14.10.2015 01:15 2,9 C 78 % 1018,5 hPa 0,0 l/m 0,0 km/h (0 Bft) N-NO 20 0 min 0,000 mm 0,0 UV-I 0 W/m -0,5 C 2,9 C 0,0 km/h (0 Bft)
14.10.2015 01:20 2,8 C 78 % 1018,4 hPa 0,0 l/m 0,0 km/h (0 Bft) N-NO 20 0 min 0,000 mm 0,0 UV-I 0 W/m -0,6 C 2,8 C 0,0 km/h (0 Bft)
14.10.2015 01:25 2,8 C 78 % 1018,4 hPa 0,0 l/m 0,2 km/h (0 Bft) O 88 0 min 0,000 mm 0,0 UV-I 0 W/m -0,6 C 2,8 C 3,2 km/h (1 Bft)
14.10.2015 01:30 2,8 C 78 % 1018,4 hPa 0,0 l/m 0,3 km/h (0 Bft) O-NO 67 0 min 0,000 mm 0,0 UV-I 0 W/m -0,6 C 2,8 C 4,8 km/h (1 Bft)
14.10.2015 01:35 2,8 C 78 % 1018,3 hPa 0,0 l/m 0,3 km/h (0 Bft) NO 45 0 min 0,000 mm 0,0 UV-I 0 W/m -0,6 C 2,8 C 3,2 km/h (1 Bft)
14.10.2015 01:40 2,8 C 78 % 1018,4 hPa 0,0 l/m 0,0 km/h (0 Bft) NO 45 0 min 0,000 mm 0,0 UV-I 0 W/m -0,6 C 2,8 C 0,0 km/h (0 Bft)
14.10.2015 01:45 2,9 C 78 % 1018,4 hPa 0,0 l/m 0,3 km/h (0 Bft) O-NO 58 0 min 0,000 mm 0,0 UV-I 0 W/m -0,5 C 2,9 C 3,2 km/h (1 Bft)
14.10.2015 01:50 2,9 C 78 % 1018,4 hPa 0,0 l/m 0,1 km/h (0 Bft) O-NO 57 0 min 0,000 mm 0,0 UV-I 0 W/m -0,5 C 2,9 C 1,6 km/h (1 Bft)
14.10.2015 01:55 2,9 C 78 % 1018,5 hPa 0,0 l/m 0,4 km/h (0 Bft) NO 35 0 min 0,000 mm 0,0 UV-I 0 W/m -0,5 C 2,9 C 3,2 km/h (1 Bft)
14.10.2015 02:00 2,9 C 78 % 1018,5 hPa 0,0 l/m 0,0 km/h (0 Bft) NO 35 0 min 0,000 mm 0,0 UV-I 0 W/m -0,5 C 2,9 C 0,0 km/h (0 Bft)
14.10.2015 02:05 2,9 C 78 % 1018,5 hPa 0,0 l/m 0,6 km/h (0 Bft) NO 53 0 min 0,000 mm 0,0 UV-I 0 W/m -0,5 C 2,9 C 4,8 km/h (1 Bft)
14.10.2015 02:10 2,9 C 78 % 1018,5 hPa 0,2 l/m 0,0 km/h (0 Bft) NO 53 0 min 0,000 mm 0,0 UV-I 0 W/m -0,5 C 2,9 C 0,0 km/h (0 Bft)
14.10.2015 02:15 3,0 C 78 % 1018,5 hPa 0,0 l/m 0,0 km/h (0 Bft) NO 53 0 min 0,000 mm 0,0 UV-I 0 W/m -0,5 C 3,0 C 0,0 km/h (0 Bft)
14.10.2015 02:20 3,0 C 78 % 1018,5 hPa 0,0 l/m 0,3 km/h (0 Bft) NO 45 0 min 0,000 mm 0,0 UV-I 0 W/m -0,5 C 3,0 C 3,2 km/h (1 Bft)
14.10.2015 02:25 3,0 C 78 % 1018,5 hPa 0,0 l/m 0,0 km/h (0 Bft) NO 49 0 min 0,000 mm 0,0 UV-I 0 W/m -0,5 C 3,0 C 1,6 km/h (1 Bft)
14.10.2015 02:30 3,0 C 78 % 1018,6 hPa 0,0 l/m 0,0 km/h (0 Bft) NO 49 0 min 0,000 mm 0,0 UV-I 0 W/m -0,5 C 3,0 C 0,0 km/h (0 Bft)
14.10.2015 02:35 3,1 C 78 % 1018,6 hPa 0,0 l/m 0,0 km/h (0 Bft) NO 49 0 min 0,000 mm 0,0 UV-I 0 W/m -0,4 C 3,1 C 0,0 km/h (0 Bft)
14.10.2015 02:40 3,1 C 78 % 1018,5 hPa 0,0 l/m 0,0 km/h (0 Bft) O-NO 78 0 min 0,000 mm 0,0 UV-I 0 W/m -0,4 C 3,1 C 0,0 km/h (0 Bft)
14.10.2015 02:45 3,0 C 78 % 1018,5 hPa 0,0 l/m 0,3 km/h (0 Bft) NO 40 0 min 0,000 mm 0,0 UV-I 0 W/m -0,5 C 3,0 C 3,2 km/h (1 Bft)
14.10.2015 02:50 3,0 C 78 % 1018,5 hPa 0,0 l/m 0,0 km/h (0 Bft) NO 40 0 min 0,000 mm 0,0 UV-I 0 W/m -0,5 C 3,0 C 0,0 km/h (0 Bft)
14.10.2015 02:55 2,9 C 78 % 1018,4 hPa 0,0 l/m 0,4 km/h (0 Bft) N 11 0 min 0,000 mm 0,0 UV-I 0 W/m -0,5 C 2,9 C 4,8 km/h (1 Bft)
14.10.2015 03:00 2,9 C 78 % 1018,4 hPa 0,0 l/m 0,1 km/h (0 Bft) NO 46 0 min 0,000 mm 0,0 UV-I 0 W/m -0,5 C 2,9 C 1,6 km/h (1 Bft)
14.10.2015 03:05 2,9 C 78 % 1018,3 hPa 0,0 l/m 0,4 km/h (0 Bft) NO 34 0 min 0,000 mm 0,0 UV-I 0 W/m -0,5 C 2,9 C 6,4 km/h (2 Bft)
14.10.2015 03:10 2,8 C 78 % 1018,3 hPa 0,0 l/m 0,3 km/h (0 Bft) O-NO 59 0 min 0,000 mm 0,0 UV-I 0 W/m -0,6 C 2,8 C 4,8 km/h (1 Bft)
14.10.2015 03:15 2,8 C 78 % 1018,3 hPa 0,0 l/m 0,0 km/h (0 Bft) O-NO 59 0 min 0,000 mm 0,0 UV-I 0 W/m -0,6 C 2,8 C 0,0 km/h (0 Bft)
14.10.2015 03:20 2,9 C 78 % 1018,2 hPa 0,0 l/m 0,1 km/h (0 Bft) N-NO 19 0 min 0,000 mm 0,0 UV-I 0 W/m -0,5 C 2,9 C 3,2 km/h (1 Bft)
14.10.2015 03:25 2,8 C 78 % 1018,1 hPa 0,0 l/m 0,2 km/h (0 Bft) O-NO 71 0 min 0,000 mm 0,0 UV-I 0 W/m -0,6 C 2,8 C 3,2 km/h (1 Bft)
14.10.2015 03:30 2,8 C 78 % 1018,1 hPa 0,0 l/m 0,3 km/h (0 Bft) O-NO 69 0 min 0,000 mm 0,0 UV-I 0 W/m -0,6 C 2,8 C 3,2 km/h (1 Bft)
14.10.2015 03:35 2,8 C 78 % 1018,0 hPa 0,0 l/m 0,2 km/h (0 Bft) N-NW 331 0 min 0,000 mm 0,0 UV-I 0 W/m -0,6 C 2,8 C 4,8 km/h (1 Bft)
14.10.2015 03:40 2,8 C 78 % 1018,0 hPa 0,2 l/m 0,0 km/h (0 Bft) N-NW 331 0 min 0,000 mm 0,0 UV-I 0 W/m -0,6 C 2,8 C 0,0 km/h (0 Bft)
14.10.2015 03:45 2,8 C 78 % 1017,9 hPa 0,0 l/m 0,0 km/h (0 Bft) N-NW 331 0 min 0,000 mm 0,0 UV-I 0 W/m -0,6 C 2,8 C 0,0 km/h (0 Bft)
14.10.2015 03:50 2,8 C 78 % 1017,9 hPa 0,0 l/m 0,0 km/h (0 Bft) N-NO 25 0 min 0,000 mm 0,0 UV-I 0 W/m -0,6 C 2,8 C 0,0 km/h (0 Bft)
14.10.2015 03:55 2,8 C 78 % 1017,9 hPa 0,0 l/m 0,1 km/h (0 Bft) O 86 0 min 0,000 mm 0,0 UV-I 0 W/m -0,6 C 2,8 C 4,8 km/h (1 Bft)
14.10.2015 04:00 2,7 C 78 % 1017,9 hPa 0,0 l/m 0,7 km/h (0 Bft) NO 53 0 min 0,000 mm 0,0 UV-I 0 W/m -0,7 C 2,7 C 6,4 km/h (2 Bft)
14.10.2015 04:05 2,8 C 78 % 1017,8 hPa 0,0 l/m 0,2 km/h (0 Bft) NO 47 0 min 0,000 mm 0,0 UV-I 0 W/m -0,6 C 2,8 C 6,4 km/h (2 Bft)
14.10.2015 04:10 2,8 C 78 % 1017,6 hPa 0,0 l/m 0,0 km/h (0 Bft) NO 47 0 min 0,000 mm 0,0 UV-I 0 W/m -0,6 C 2,8 C 0,0 km/h (0 Bft)
14.10.2015 04:15 2,8 C 78 % 1017,6 hPa 0,0 l/m 0,0 km/h (0 Bft) N 5 0 min 0,000 mm 0,0 UV-I 0 W/m -0,6 C 2,8 C 0,0 km/h (0 Bft)
14.10.2015 04:20 2,8 C 78 % 1017,7 hPa 0,0 l/m 1,1 km/h (1 Bft) O-NO 66 0 min 0,000 mm 0,0 UV-I 0 W/m -0,6 C 2,8 C 6,4 km/h (2 Bft)
14.10.2015 04:25 2,8 C 78 % 1017,7 hPa 0,0 l/m 0,0 km/h (0 Bft) O-NO 66 0 min 0,000 mm 0,0 UV-I 0 W/m -0,6 C 2,8 C 1,6 km/h (1 Bft)
14.10.2015 04:30 2,7 C 78 % 1017,7 hPa 0,0 l/m 0,5 km/h (0 Bft) O-NO 64 0 min 0,000 mm 0,0 UV-I 0 W/m -0,7 C 2,7 C 4,8 km/h (1 Bft)
14.10.2015 04:35 2,7 C 78 % 1017,8 hPa 0,0 l/m 0,2 km/h (0 Bft) O-NO 63 0 min 0,000 mm 0,0 UV-I 0 W/m -0,7 C 2,7 C 3,2 km/h (1 Bft)
14.10.2015 04:40 2,7 C 78 % 1017,8 hPa 0,0 l/m 0,6 km/h (0 Bft) NO 55 0 min 0,000 mm 0,0 UV-I 0 W/m -0,7 C 2,7 C 8,0 km/h (2 Bft)
14.10.2015 04:45 2,6 C 78 % 1017,7 hPa 0,0 l/m 0,6 km/h (0 Bft) NO 49 0 min 0,000 mm 0,0 UV-I 0 W/m -0,8 C 2,6 C 6,4 km/h (2 Bft)
14.10.2015 04:50 2,6 C 78 % 1017,7 hPa 0,0 l/m 0,4 km/h (0 Bft) O 98 0 min 0,000 mm 0,0 UV-I 0 W/m -0,8 C 2,6 C 4,8 km/h (1 Bft)
14.10.2015 04:55 2,7 C 78 % 1017,7 hPa 0,0 l/m 0,0 km/h (0 Bft) O 98 0 min 0,000 mm 0,0 UV-I 0 W/m -0,7 C 2,7 C 0,0 km/h (0 Bft)
14.10.2015 05:00 2,7 C 78 % 1017,7 hPa 0,0 l/m 0,0 km/h (0 Bft) O 93 0 min 0,000 mm 0,0 UV-I 0 W/m -0,7 C 2,7 C 1,6 km/h (1 Bft)
14.10.2015 05:05 2,6 C 78 % 1017,7 hPa 0,0 l/m 0,9 km/h (0 Bft) NO 48 0 min 0,000 mm 0,0 UV-I 0 W/m -0,8 C 2,6 C 11,3 km/h (2 Bft)
14.10.2015 05:10 2,7 C 78 % 1017,6 hPa 0,0 l/m 0,1 km/h (0 Bft) NO 51 0 min 0,000 mm 0,0 UV-I 0 W/m -0,7 C 2,7 C 1,6 km/h (1 Bft)
14.10.2015 05:15 2,6 C 78 % 1017,6 hPa 0,0 l/m 0,1 km/h (0 Bft) NO 49 0 min 0,000 mm 0,0 UV-I 0 W/m -0,8 C 2,6 C 3,2 km/h (1 Bft)
14.10.2015 05:20 2,6 C 78 % 1017,6 hPa 0,0 l/m 0,1 km/h (0 Bft) N-NO 13 0 min 0,000 mm 0,0 UV-I 0 W/m -0,8 C 2,6 C 1,6 km/h (1 Bft)
14.10.2015 05:25 2,7 C 78 % 1017,6 hPa 0,0 l/m 0,0 km/h (0 Bft) N-NO 13 0 min 0,000 mm 0,0 UV-I 0 W/m -0,7 C 2,7 C 0,0 km/h (0 Bft)
14.10.2015 05:30 2,7 C 78 % 1017,7 hPa 0,0 l/m 0,2 km/h (0 Bft) NO 54 0 min 0,000 mm 0,0 UV-I 0 W/m -0,7 C 2,7 C 6,4 km/h (2 Bft)
14.10.2015 05:35 2,7 C 78 % 1017,6 hPa 0,0 l/m 0,3 km/h (0 Bft) O-NO 57 0 min 0,000 mm 0,0 UV-I 0 W/m -0,7 C 2,7 C 4,8 km/h (1 Bft)
14.10.2015 05:40 2,7 C 78 % 1017,6 hPa 0,0 l/m 0,5 km/h (0 Bft) NO 46 0 min 0,000 mm 0,0 UV-I 0 W/m -0,7 C 2,7 C 4,8 km/h (1 Bft)
14.10.2015 05:45 2,7 C 78 % 1017,6 hPa 0,0 l/m 0,2 km/h (0 Bft) O-NO 77 0 min 0,000 mm 0,0 UV-I 0 W/m -0,7 C 2,7 C 3,2 km/h (1 Bft)
14.10.2015 05:50 2,6 C 78 % 1017,6 hPa 0,0 l/m 0,2 km/h (0 Bft) O-NO 75 0 min 0,000 mm 0,0 UV-I 0 W/m -0,8 C 2,6 C 3,2 km/h (1 Bft)
14.10.2015 05:55 2,6 C 78 % 1017,6 hPa 0,0 l/m 0,0 km/h (0 Bft) O-NO 75 0 min 0,000 mm 0,0 UV-I 0 W/m -0,8 C 2,6 C 0,0 km/h (0 Bft)
14.10.2015 06:00 2,6 C 78 % 1017,5 hPa 0,0 l/m 0,0 km/h (0 Bft) O-NO 75 0 min 0,000 mm 0,0 UV-I 0 W/m -0,8 C 2,6 C 0,0 km/h (0 Bft)
14.10.2015 06:05 2,6 C 78 % 1017,6 hPa 0,0 l/m 0,0 km/h (0 Bft) O-NO 75 0 min 0,000 mm 0,0 UV-I 0 W/m -0,8 C 2,6 C 1,6 km/h (1 Bft)
14.10.2015 06:10 2,6 C 78 % 1017,6 hPa 0,0 l/m 0,0 km/h (0 Bft) O-NO 75 0 min 0,000 mm 0,0 UV-I 0 W/m -0,8 C 2,6 C 0,0 km/h (0 Bft)
14.10.2015 06:15 2,6 C 78 % 1017,5 hPa 0,0 l/m 0,0 km/h (0 Bft) O-NO 75 0 min 0,000 mm 0,0 UV-I 0 W/m -0,8 C 2,6 C 0,0 km/h (0 Bft)
14.10.2015 06:20 2,6 C 78 % 1017,5 hPa 0,0 l/m 0,0 km/h (0 Bft) O-NO 75 0 min 0,000 mm 0,0 UV-I 0 W/m -0,8 C 2,6 C 0,0 km/h (0 Bft)
14.10.2015 06:25 2,5 C 78 % 1017,5 hPa 0,0 l/m 0,0 km/h (0 Bft) O-NO 75 0 min 0,000 mm 0,0 UV-I 0 W/m -0,9 C 2,5 C 0,0 km/h (0 Bft)
14.10.2015 06:30 2,5 C 78 % 1017,5 hPa 0,2 l/m 0,2 km/h (0 Bft) O-NO 75 0 min 0,000 mm 0,0 UV-I 0 W/m -0,9 C 2,5 C 3,2 km/h (1 Bft)
14.10.2015 06:35 2,4 C 78 % 1017,5 hPa 0,0 l/m 0,5 km/h (0 Bft) O-NO 75 0 min 0,000 mm 0,0 UV-I 0 W/m -1,0 C 2,4 C 4,8 km/h (1 Bft)
14.10.2015 06:40 2,4 C 78 % 1017,5 hPa 0,0 l/m 0,0 km/h (0 Bft) O-NO 75 0 min 0,000 mm 0,0 UV-I 0 W/m -1,0 C 2,4 C 0,0 km/h (0 Bft)
14.10.2015 06:45 2,5 C 78 % 1017,4 hPa 0,0 l/m 0,0 km/h (0 Bft) O-NO 74 0 min 0,000 mm 0,0 UV-I 0 W/m -0,9 C 2,5 C 0,0 km/h (0 Bft)
14.10.2015 06:50 2,4 C 78 % 1017,5 hPa 0,0 l/m 0,3 km/h (0 Bft) O-NO 74 0 min 0,000 mm 0,0 UV-I 0 W/m -1,0 C 2,4 C 3,2 km/h (1 Bft)
14.10.2015 06:55 2,5 C 78 % 1017,4 hPa 0,0 l/m 0,1 km/h (0 Bft) O-NO 74 0 min 0,000 mm 0,0 UV-I 0 W/m -0,9 C 2,5 C 3,2 km/h (1 Bft)
14.10.2015 07:00 2,5 C 78 % 1017,5 hPa 0,0 l/m 0,0 km/h (0 Bft) O-NO 74 0 min 0,000 mm 0,0 UV-I 0 W/m -0,9 C 2,5 C 1,6 km/h (1 Bft)
14.10.2015 07:05 2,5 C 78 % 1017,4 hPa 0,0 l/m 0,0 km/h (0 Bft) O-NO 74 0 min 0,000 mm 0,0 UV-I 0 W/m -0,9 C 2,5 C 0,0 km/h (0 Bft)
14.10.2015 07:10 2,6 C 78 % 1017,4 hPa 0,0 l/m 0,0 km/h (0 Bft) O-NO 74 0 min 0,000 mm 0,0 UV-I 0 W/m -0,8 C 2,6 C 0,0 km/h (0 Bft)
14.10.2015 07:15 2,6 C 78 % 1017,4 hPa 0,0 l/m 0,1 km/h (0 Bft) O-NO 74 0 min 0,000 mm 0,0 UV-I 0 W/m -0,8 C 2,6 C 3,2 km/h (1 Bft)
14.10.2015 07:20 2,5 C 78 % 1017,4 hPa 0,0 l/m 0,3 km/h (0 Bft) O-NO 74 0 min 0,000 mm 0,0 UV-I 0 W/m -0,9 C 2,5 C 3,2 km/h (1 Bft)
14.10.2015 07:25 2,5 C 78 % 1017,4 hPa 0,0 l/m 0,4 km/h (0 Bft) O-NO 67 0 min 0,000 mm 0,0 UV-I 0 W/m -0,9 C 2,5 C 4,8 km/h (1 Bft)
14.10.2015 07:30 2,5 C 78 % 1017,4 hPa 0,0 l/m 0,8 km/h (0 Bft) NO 51 0 min 0,000 mm 0,0 UV-I 0 W/m -0,9 C 2,5 C 4,8 km/h (1 Bft)
14.10.2015 07:35 2,5 C 78 % 1017,4 hPa 0,0 l/m 0,0 km/h (0 Bft) NO 51 0 min 0,000 mm 0,0 UV-I 0 W/m -0,9 C 2,5 C 1,6 km/h (1 Bft)
14.10.2015 07:40 2,5 C 78 % 1017,4 hPa 0,0 l/m 0,0 km/h (0 Bft) NO 51 0 min 0,000 mm 0,0 UV-I 0 W/m -0,9 C 2,5 C 0,0 km/h (0 Bft)
14.10.2015 07:45 2,5 C 78 % 1017,4 hPa 0,0 l/m 0,2 km/h (0 Bft) NO 51 0 min 0,000 mm 0,0 UV-I 0 W/m -0,9 C 2,5 C 3,2 km/h (1 Bft)
14.10.2015 07:50 2,6 C 78 % 1017,4 hPa 0,0 l/m 0,0 km/h (0 Bft) NO 51 0 min 0,000 mm 0,0 UV-I 0 W/m -0,8 C 2,6 C 1,6 km/h (1 Bft)
14.10.2015 07:55 2,5 C 78 % 1017,4 hPa 0,0 l/m 0,1 km/h (0 Bft) NO 51 0 min 0,000 mm 0,0 UV-I 0 W/m -0,9 C 2,5 C 1,6 km/h (1 Bft)
14.10.2015 08:00 2,6 C 78 % 1017,4 hPa 0,0 l/m 0,0 km/h (0 Bft) NO 51 0 min 0,000 mm 0,0 UV-I 0 W/m -0,8 C 2,6 C 0,0 km/h (0 Bft)
14.10.2015 08:05 2,6 C 78 % 1017,4 hPa 0,0 l/m 0,0 km/h (0 Bft) NO 51 0 min 0,000 mm 0,0 UV-I 0 W/m -0,8 C 2,6 C 0,0 km/h (0 Bft)
14.10.2015 08:10 2,6 C 78 % 1017,5 hPa 0,0 l/m 0,0 km/h (0 Bft) NO 51 0 min 0,000 mm 0,0 UV-I 0 W/m -0,8 C 2,6 C 0,0 km/h (0 Bft)
14.10.2015 08:15 2,6 C 78 % 1017,5 hPa 0,0 l/m 0,0 km/h (0 Bft) NO 51 0 min 0,000 mm 0,0 UV-I 0 W/m -0,8 C 2,6 C 0,0 km/h (0 Bft)
14.10.2015 08:20 2,6 C 78 % 1017,5 hPa 0,0 l/m 0,0 km/h (0 Bft) NO 51 0 min 0,000 mm 0,0 UV-I 0 W/m -0,8 C 2,6 C 0,0 km/h (0 Bft)
14.10.2015 08:25 2,6 C 78 % 1017,5 hPa 0,0 l/m 0,0 km/h (0 Bft) NO 51 0 min 0,000 mm 0,0 UV-I 0 W/m -0,8 C 2,6 C 0,0 km/h (0 Bft)
14.10.2015 08:30 2,6 C 78 % 1017,5 hPa 0,0 l/m 0,0 km/h (0 Bft) NO 51 0 min 0,000 mm 0,0 UV-I 0 W/m -0,8 C 2,6 C 0,0 km/h (0 Bft)
14.10.2015 08:35 2,6 C 78 % 1017,5 hPa 0,0 l/m 0,0 km/h (0 Bft) NO 51 0 min 0,000 mm 0,0 UV-I 2 W/m -0,8 C 2,6 C 0,0 km/h (0 Bft)
14.10.2015 08:40 2,6 C 78 % 1017,5 hPa 0,0 l/m 0,0 km/h (0 Bft) NO 51 0 min 0,000 mm 0,0 UV-I 5 W/m -0,8 C 2,6 C 0,0 km/h (0 Bft)
14.10.2015 08:45 2,7 C 78 % 1017,5 hPa 0,0 l/m 0,0 km/h (0 Bft) NO 51 0 min 0,000 mm 0,0 UV-I 6 W/m -0,7 C 2,7 C 0,0 km/h (0 Bft)
14.10.2015 08:50 2,7 C 78 % 1017,6 hPa 0,0 l/m 0,0 km/h (0 Bft) NO 51 0 min 0,000 mm 0,0 UV-I 7 W/m -0,7 C 2,7 C 0,0 km/h (0 Bft)
14.10.2015 08:55 2,7 C 78 % 1017,6 hPa 0,0 l/m 0,0 km/h (0 Bft) NO 51 0 min 0,000 mm 0,0 UV-I 7 W/m -0,7 C 2,7 C 0,0 km/h (0 Bft)
14.10.2015 09:00 2,7 C 78 % 1017,5 hPa 0,0 l/m 0,0 km/h (0 Bft) NO 51 0 min 0,000 mm 0,0 UV-I 8 W/m -0,7 C 2,7 C 0,0 km/h (0 Bft)
14.10.2015 09:05 2,7 C 78 % 1017,5 hPa 0,0 l/m 0,0 km/h (0 Bft) NO 51 0 min 0,000 mm 0,0 UV-I 10 W/m -0,7 C 2,7 C 0,0 km/h (0 Bft)
14.10.2015 09:10 2,8 C 78 % 1017,5 hPa 0,0 l/m 0,0 km/h (0 Bft) NO 51 0 min 0,000 mm 0,0 UV-I 11 W/m -0,6 C 2,8 C 0,0 km/h (0 Bft)
14.10.2015 09:15 2,8 C 78 % 1017,5 hPa 0,0 l/m 0,0 km/h (0 Bft) NO 51 0 min 0,000 mm 0,0 UV-I 11 W/m -0,6 C 2,8 C 0,0 km/h (0 Bft)
14.10.2015 09:20 2,8 C 78 % 1017,5 hPa 0,0 l/m 0,0 km/h (0 Bft) N 0 0 min 0,000 mm 0,0 UV-I 13 W/m -0,6 C 2,8 C 0,0 km/h (0 Bft)
14.10.2015 09:25 2,8 C 78 % 1017,6 hPa 0,0 l/m 0,0 km/h (0 Bft) NO 51 0 min 0,000 mm 0,0 UV-I 14 W/m -0,6 C 2,8 C 0,0 km/h (0 Bft)
14.10.2015 09:30 2,8 C 78 % 1017,6 hPa 0,0 l/m 0,0 km/h (0 Bft) NO 51 0 min 0,000 mm 0,0 UV-I 16 W/m -0,6 C 2,8 C 0,0 km/h (0 Bft)
14.10.2015 09:35 2,9 C 78 % 1017,5 hPa 0,0 l/m 0,0 km/h (0 Bft) NO 51 0 min 0,000 mm 0,0 UV-I 17 W/m -0,5 C 2,9 C 0,0 km/h (0 Bft)
14.10.2015 09:40 2,8 C 78 % 1017,5 hPa 0,0 l/m 0,0 km/h (0 Bft) NO 51 0 min 0,000 mm 0,0 UV-I 19 W/m -0,6 C 2,8 C 0,0 km/h (0 Bft)
14.10.2015 09:45 2,9 C 78 % 1017,5 hPa 0,0 l/m 0,0 km/h (0 Bft) NO 51 0 min 0,000 mm 0,0 UV-I 21 W/m -0,5 C 2,9 C 0,0 km/h (0 Bft)
14.10.2015 09:50 3,0 C 78 % 1017,5 hPa 0,0 l/m 0,0 km/h (0 Bft) NO 51 0 min 0,000 mm 0,0 UV-I 23 W/m -0,5 C 3,0 C 0,0 km/h (0 Bft)
14.10.2015 09:55 2,9 C 78 % 1017,5 hPa 0,2 l/m 0,2 km/h (0 Bft) NO 51 0 min 0,000 mm 0,0 UV-I 28 W/m -0,5 C 2,9 C 3,2 km/h (1 Bft)
14.10.2015 10:00 2,9 C 78 % 1017,6 hPa 0,0 l/m 0,0 km/h (0 Bft) NO 51 0 min 0,000 mm 0,0 UV-I 31 W/m -0,5 C 2,9 C 1,6 km/h (1 Bft)
14.10.2015 10:06 2,9 C 78 % 1017,6 hPa 0,0 l/m 0,4 km/h (0 Bft) NO 51 0 min 0,000 mm 0,0 UV-I 29 W/m -0,5 C 2,9 C 4,8 km/h (1 Bft)
14.10.2015 10:10 2,9 C 78 % 1017,6 hPa 0,0 l/m 0,2 km/h (0 Bft) NO 51 0 min 0,000 mm 0,0 UV-I 30 W/m -0,5 C 2,9 C 1,6 km/h (1 Bft)
14.10.2015 10:15 2,9 C 78 % 1017,6 hPa 0,0 l/m 0,0 km/h (0 Bft) NO 51 0 min 0,000 mm 0,0 UV-I 32 W/m -0,5 C 2,9 C 0,0 km/h (0 Bft)
14.10.2015 10:20 3,0 C 78 % 1017,5 hPa 0,0 l/m 0,0 km/h (0 Bft) NO 51 0 min 0,000 mm 0,0 UV-I 36 W/m -0,5 C 3,0 C 1,6 km/h (1 Bft)
14.10.2015 10:25 3,0 C 78 % 1017,6 hPa 0,0 l/m 0,1 km/h (0 Bft) NO 51 0 min 0,000 mm 0,0 UV-I 38 W/m -0,5 C 3,0 C 3,2 km/h (1 Bft)
14.10.2015 10:30 3,1 C 78 % 1017,6 hPa 0,0 l/m 0,2 km/h (0 Bft) NO 44 0 min 0,000 mm 0,0 UV-I 38 W/m -0,4 C 3,1 C 3,2 km/h (1 Bft)
14.10.2015 10:35 3,1 C 78 % 1017,6 hPa 0,0 l/m 0,0 km/h (0 Bft) NO 44 0 min 0,000 mm 0,0 UV-I 42 W/m -0,4 C 3,1 C 0,0 km/h (0 Bft)
14.10.2015 10:40 3,2 C 78 % 1017,6 hPa 0,0 l/m 0,0 km/h (0 Bft) NO 44 0 min 0,000 mm 0,0 UV-I 42 W/m -0,3 C 3,2 C 1,6 km/h (1 Bft)
14.10.2015 10:45 3,2 C 78 % 1017,6 hPa 0,0 l/m 0,1 km/h (0 Bft) NO 44 0 min 0,000 mm 0,0 UV-I 39 W/m -0,3 C 3,2 C 1,6 km/h (1 Bft)
14.10.2015 10:50 3,2 C 78 % 1017,4 hPa 0,2 l/m 0,4 km/h (0 Bft) N-NO 17 0 min 0,000 mm 0,0 UV-I 59 W/m -0,3 C 3,2 C 3,2 km/h (1 Bft)
14.10.2015 10:55 3,2 C 78 % 1017,4 hPa 0,0 l/m 0,1 km/h (0 Bft) O-NO 58 0 min 0,000 mm 0,4 UV-I 90 W/m -0,3 C 3,2 C 3,2 km/h (1 Bft)
14.10.2015 11:00 3,3 C 78 % 1017,3 hPa 0,0 l/m 0,3 km/h (0 Bft) O 88 0 min 0,025 mm 0,2 UV-I 86 W/m -0,2 C 3,3 C 4,8 km/h (1 Bft)
14.10.2015 11:05 3,3 C 78 % 1017,3 hPa 0,0 l/m 1,1 km/h (1 Bft) O-NO 58 0 min 0,000 mm 0,5 UV-I 84 W/m -0,2 C 3,3 C 6,4 km/h (2 Bft)
14.10.2015 11:10 3,3 C 78 % 1017,3 hPa 0,0 l/m 2,4 km/h (1 Bft) O-NO 64 0 min 0,000 mm 0,5 UV-I 80 W/m -0,2 C 3,3 C 11,3 km/h (2 Bft)
14.10.2015 11:15 3,4 C 78 % 1017,4 hPa 0,0 l/m 1,5 km/h (1 Bft) NO 55 0 min 0,000 mm 0,6 UV-I 94 W/m -0,1 C 3,4 C 9,7 km/h (2 Bft)
14.10.2015 11:20 3,5 C 78 % 1017,3 hPa 0,0 l/m 0,1 km/h (0 Bft) NO 52 0 min 0,000 mm 0,6 UV-I 91 W/m 0,0 C 3,5 C 3,2 km/h (1 Bft)
14.10.2015 11:25 3,7 C 78 % 1017,3 hPa 0,0 l/m 0,0 km/h (0 Bft) NO 52 0 min 0,000 mm 0,6 UV-I 113 W/m 0,2 C 3,7 C 0,0 km/h (0 Bft)
14.10.2015 11:30 3,8 C 78 % 1017,2 hPa 0,0 l/m 0,6 km/h (0 Bft) O-NO 75 0 min 0,000 mm 0,7 UV-I 127 W/m 0,3 C 3,8 C 8,0 km/h (2 Bft)
14.10.2015 11:35 3,7 C 78 % 1017,2 hPa 0,0 l/m 0,7 km/h (0 Bft) O-NO 78 0 min 0,000 mm 0,7 UV-I 124 W/m 0,2 C 3,7 C 8,0 km/h (2 Bft)
14.10.2015 11:40 3,7 C 78 % 1017,2 hPa 0,0 l/m 2,0 km/h (1 Bft) NO 52 0 min 0,000 mm 0,7 UV-I 116 W/m 0,2 C 3,7 C 12,9 km/h (3 Bft)
14.10.2015 11:45 3,6 C 79 % 1017,1 hPa 0,0 l/m 3,9 km/h (1 Bft) NO 52 0 min 0,000 mm 0,6 UV-I 109 W/m 0,3 C 3,6 C 12,9 km/h (3 Bft)
14.10.2015 11:50 3,6 C 78 % 1017,1 hPa 0,0 l/m 3,0 km/h (1 Bft) O-NO 74 0 min 0,000 mm 0,6 UV-I 107 W/m 0,1 C 3,6 C 11,3 km/h (2 Bft)
14.10.2015 11:55 3,6 C 78 % 1017,2 hPa 0,0 l/m 2,4 km/h (1 Bft) O 89 0 min 0,000 mm 0,6 UV-I 90 W/m 0,1 C 3,6 C 12,9 km/h (3 Bft)
14.10.2015 12:00 3,6 C 78 % 1017,2 hPa 0,0 l/m 2,0 km/h (1 Bft) NO 45 0 min 0,051 mm 0,5 UV-I 87 W/m 0,1 C 3,6 C 12,9 km/h (3 Bft)
14.10.2015 12:05 3,6 C 78 % 1017,2 hPa 0,0 l/m 2,7 km/h (1 Bft) NO 56 0 min 0,000 mm 0,6 UV-I 95 W/m 0,1 C 3,6 C 9,7 km/h (2 Bft)
14.10.2015 12:10 3,5 C 79 % 1017,2 hPa 0,0 l/m 4,0 km/h (1 Bft) O-NO 62 0 min 0,000 mm 0,5 UV-I 94 W/m 0,2 C 3,5 C 16,1 km/h (3 Bft)
14.10.2015 12:15 3,6 C 78 % 1017,2 hPa 0,0 l/m 0,7 km/h (0 Bft) O-NO 59 0 min 0,000 mm 0,6 UV-I 88 W/m 0,1 C 3,6 C 8,0 km/h (2 Bft)
14.10.2015 12:20 3,6 C 79 % 1017,3 hPa 0,0 l/m 3,9 km/h (1 Bft) NO 52 0 min 0,000 mm 0,6 UV-I 87 W/m 0,3 C 3,6 C 12,9 km/h (3 Bft)
14.10.2015 12:25 3,7 C 78 % 1017,2 hPa 0,0 l/m 2,2 km/h (1 Bft) NO 35 0 min 0,000 mm 0,5 UV-I 73 W/m 0,2 C 3,7 C 11,3 km/h (2 Bft)
14.10.2015 12:30 3,7 C 78 % 1017,2 hPa 0,0 l/m 1,3 km/h (1 Bft) NO 47 0 min 0,000 mm 0,2 UV-I 57 W/m 0,2 C 3,7 C 12,9 km/h (3 Bft)
14.10.2015 12:35 3,7 C 79 % 1017,2 hPa 0,0 l/m 0,1 km/h (0 Bft) NO 48 0 min 0,000 mm 0,2 UV-I 56 W/m 0,4 C 3,7 C 3,2 km/h (1 Bft)
14.10.2015 12:40 3,6 C 79 % 1017,2 hPa 0,0 l/m 2,1 km/h (1 Bft) O-NO 61 0 min 0,000 mm 0,4 UV-I 60 W/m 0,3 C 3,6 C 8,0 km/h (2 Bft)
14.10.2015 12:45 3,6 C 79 % 1017,2 hPa 0,0 l/m 1,5 km/h (1 Bft) NO 55 0 min 0,000 mm 0,0 UV-I 49 W/m 0,3 C 3,6 C 8,0 km/h (2 Bft)
14.10.2015 12:50 3,6 C 79 % 1017,2 hPa 0,0 l/m 0,3 km/h (0 Bft) O-NO 72 0 min 0,000 mm 0,2 UV-I 55 W/m 0,3 C 3,6 C 3,2 km/h (1 Bft)
14.10.2015 12:55 3,7 C 79 % 1017,2 hPa 0,0 l/m 2,9 km/h (1 Bft) O-NO 57 0 min 0,000 mm 0,5 UV-I 63 W/m 0,4 C 3,7 C 11,3 km/h (2 Bft)
14.10.2015 13:00 3,6 C 79 % 1017,3 hPa 0,0 l/m 1,8 km/h (1 Bft) NO 52 0 min 0,026 mm 0,5 UV-I 65 W/m 0,3 C 3,6 C 12,9 km/h (3 Bft)
14.10.2015 13:05 3,6 C 79 % 1017,2 hPa 0,0 l/m 2,1 km/h (1 Bft) N-NO 15 0 min 0,000 mm 0,6 UV-I 74 W/m 0,3 C 3,6 C 12,9 km/h (3 Bft)
14.10.2015 13:10 3,7 C 79 % 1017,2 hPa 0,0 l/m 0,4 km/h (0 Bft) O-NO 64 0 min 0,000 mm 0,6 UV-I 73 W/m 0,4 C 3,7 C 4,8 km/h (1 Bft)
14.10.2015 13:15 3,8 C 79 % 1017,2 hPa 0,0 l/m 1,0 km/h (0 Bft) O 92 0 min 0,000 mm 0,6 UV-I 90 W/m 0,5 C 3,8 C 8,0 km/h (2 Bft)
14.10.2015 13:20 3,8 C 79 % 1017,1 hPa 0,0 l/m 0,9 km/h (0 Bft) O 94 0 min 0,000 mm 0,6 UV-I 89 W/m 0,5 C 3,8 C 6,4 km/h (2 Bft)
14.10.2015 13:25 3,8 C 79 % 1017,1 hPa 0,0 l/m 4,0 km/h (1 Bft) O-NO 68 0 min 0,000 mm 0,5 UV-I 67 W/m 0,5 C 3,8 C 12,9 km/h (3 Bft)
14.10.2015 13:30 3,7 C 79 % 1017,0 hPa 0,0 l/m 3,9 km/h (1 Bft) O 88 0 min 0,000 mm 0,6 UV-I 93 W/m 0,4 C 3,7 C 12,9 km/h (3 Bft)
14.10.2015 13:35 3,8 C 79 % 1017,0 hPa 0,0 l/m 1,0 km/h (0 Bft) O-NO 75 0 min 0,000 mm 0,6 UV-I 92 W/m 0,5 C 3,8 C 8,0 km/h (2 Bft)
14.10.2015 13:40 3,8 C 79 % 1017,0 hPa 0,0 l/m 2,2 km/h (1 Bft) N-NO 32 0 min 0,000 mm 0,6 UV-I 76 W/m 0,5 C 3,8 C 11,3 km/h (2 Bft)
14.10.2015 13:45 3,8 C 79 % 1017,0 hPa 0,0 l/m 0,9 km/h (0 Bft) O-NO 74 0 min 0,000 mm 0,6 UV-I 82 W/m 0,5 C 3,8 C 8,0 km/h (2 Bft)
14.10.2015 13:50 3,9 C 79 % 1017,0 hPa 0,0 l/m 0,7 km/h (0 Bft) NO 51 0 min 0,000 mm 0,6 UV-I 87 W/m 0,6 C 3,9 C 8,0 km/h (2 Bft)
14.10.2015 13:55 3,9 C 79 % 1017,0 hPa 0,0 l/m 0,8 km/h (0 Bft) NO 55 0 min 0,000 mm 0,5 UV-I 74 W/m 0,6 C 3,9 C 11,3 km/h (2 Bft)
14.10.2015 14:00 3,8 C 79 % 1017,0 hPa 0,0 l/m 2,8 km/h (1 Bft) O 83 0 min 0,025 mm 0,5 UV-I 66 W/m 0,5 C 3,8 C 12,9 km/h (3 Bft)
14.10.2015 14:05 3,8 C 79 % 1017,0 hPa 0,0 l/m 2,6 km/h (1 Bft) NO 37 0 min 0,000 mm 0,6 UV-I 80 W/m 0,5 C 3,8 C 11,3 km/h (2 Bft)
14.10.2015 14:10 3,8 C 79 % 1016,9 hPa 0,0 l/m 2,7 km/h (1 Bft) O 98 0 min 0,000 mm 0,5 UV-I 71 W/m 0,5 C 3,8 C 11,3 km/h (2 Bft)
14.10.2015 14:15 3,8 C 79 % 1016,9 hPa 0,0 l/m 1,5 km/h (1 Bft) NO 51 0 min 0,000 mm 0,5 UV-I 70 W/m 0,5 C 3,8 C 8,0 km/h (2 Bft)
14.10.2015 14:20 3,7 C 79 % 1017,0 hPa 0,0 l/m 2,5 km/h (1 Bft) O-NO 69 0 min 0,000 mm 0,5 UV-I 76 W/m 0,4 C 3,7 C 14,5 km/h (3 Bft)
14.10.2015 14:25 3,7 C 79 % 1017,0 hPa 0,0 l/m 1,6 km/h (1 Bft) O 90 0 min 0,000 mm 0,5 UV-I 72 W/m 0,4 C 3,7 C 12,9 km/h (3 Bft)
14.10.2015 14:30 3,7 C 79 % 1017,0 hPa 0,0 l/m 3,7 km/h (1 Bft) NO 42 0 min 0,000 mm 0,3 UV-I 65 W/m 0,4 C 3,7 C 12,9 km/h (3 Bft)
14.10.2015 14:35 3,7 C 79 % 1017,1 hPa 0,0 l/m 2,1 km/h (1 Bft) NO 38 0 min 0,000 mm 0,5 UV-I 78 W/m 0,4 C 3,7 C 12,9 km/h (3 Bft)
14.10.2015 14:40 3,7 C 79 % 1017,1 hPa 0,0 l/m 2,3 km/h (1 Bft) N-NO 24 0 min 0,000 mm 0,3 UV-I 66 W/m 0,4 C 3,7 C 8,0 km/h (2 Bft)
14.10.2015 14:45 3,7 C 79 % 1017,0 hPa 0,0 l/m 2,5 km/h (1 Bft) NO 55 0 min 0,000 mm 0,0 UV-I 61 W/m 0,4 C 3,7 C 11,3 km/h (2 Bft)
14.10.2015 14:50 3,8 C 79 % 1017,0 hPa 0,0 l/m 2,0 km/h (1 Bft) O-SO 122 0 min 0,000 mm 0,0 UV-I 54 W/m 0,5 C 3,8 C 12,9 km/h (3 Bft)
14.10.2015 14:55 3,8 C 79 % 1017,0 hPa 0,0 l/m 1,2 km/h (1 Bft) O-NO 73 0 min 0,000 mm 0,0 UV-I 54 W/m 0,5 C 3,8 C 11,3 km/h (2 Bft)
14.10.2015 15:00 3,8 C 79 % 1017,0 hPa 0,0 l/m 0,3 km/h (0 Bft) N-NO 30 0 min 0,025 mm 0,0 UV-I 59 W/m 0,5 C 3,8 C 6,4 km/h (2 Bft)
14.10.2015 15:05 3,9 C 79 % 1017,0 hPa 0,0 l/m 0,1 km/h (0 Bft) O-NO 73 0 min 0,000 mm 0,3 UV-I 74 W/m 0,6 C 3,9 C 3,2 km/h (1 Bft)
14.10.2015 15:10 3,9 C 79 % 1016,9 hPa 0,0 l/m 0,0 km/h (0 Bft) O-NO 73 0 min 0,000 mm 0,6 UV-I 94 W/m 0,6 C 3,9 C 0,0 km/h (0 Bft)
14.10.2015 15:15 3,9 C 79 % 1017,0 hPa 0,0 l/m 0,5 km/h (0 Bft) O-NO 67 0 min 0,000 mm 0,4 UV-I 75 W/m 0,6 C 3,9 C 4,8 km/h (1 Bft)
14.10.2015 15:20 3,9 C 79 % 1016,9 hPa 0,0 l/m 2,1 km/h (1 Bft) O-NO 59 0 min 0,000 mm 0,0 UV-I 61 W/m 0,6 C 3,9 C 8,0 km/h (2 Bft)
14.10.2015 15:25 3,9 C 79 % 1017,0 hPa 0,0 l/m 0,9 km/h (0 Bft) NO 54 0 min 0,000 mm 0,0 UV-I 54 W/m 0,6 C 3,9 C 8,0 km/h (2 Bft)
14.10.2015 15:30 3,9 C 79 % 1017,0 hPa 0,0 l/m 0,9 km/h (0 Bft) NO 45 0 min 0,000 mm 0,0 UV-I 53 W/m 0,6 C 3,9 C 6,4 km/h (2 Bft)
14.10.2015 15:35 3,9 C 79 % 1017,0 hPa 0,0 l/m 0,5 km/h (0 Bft) O-NO 59 0 min 0,000 mm 0,0 UV-I 50 W/m 0,6 C 3,9 C 8,0 km/h (2 Bft)
14.10.2015 15:40 3,9 C 79 % 1017,0 hPa 0,0 l/m 0,9 km/h (0 Bft) O-NO 58 0 min 0,000 mm 0,0 UV-I 48 W/m 0,6 C 3,9 C 8,0 km/h (2 Bft)
14.10.2015 15:45 3,9 C 79 % 1017,1 hPa 0,0 l/m 2,8 km/h (1 Bft) NO 51 0 min 0,000 mm 0,0 UV-I 43 W/m 0,6 C 3,9 C 11,3 km/h (2 Bft)
14.10.2015 15:50 3,9 C 79 % 1017,1 hPa 0,0 l/m 1,0 km/h (0 Bft) NO 43 0 min 0,000 mm 0,0 UV-I 56 W/m 0,6 C 3,9 C 11,3 km/h (2 Bft)
14.10.2015 15:55 3,9 C 79 % 1017,1 hPa 0,0 l/m 0,4 km/h (0 Bft) O-NO 75 0 min 0,000 mm 0,0 UV-I 54 W/m 0,6 C 3,9 C 6,4 km/h (2 Bft)
14.10.2015 16:00 4,0 C 79 % 1017,1 hPa 0,0 l/m 0,3 km/h (0 Bft) O-NO 72 0 min 0,026 mm 0,0 UV-I 38 W/m 0,7 C 4,0 C 6,4 km/h (2 Bft)
14.10.2015 16:05 4,0 C 79 % 1017,0 hPa 0,0 l/m 0,3 km/h (0 Bft) N-NO 26 0 min 0,000 mm 0,0 UV-I 38 W/m 0,7 C 4,0 C 3,2 km/h (1 Bft)
14.10.2015 16:10 4,0 C 79 % 1017,0 hPa 0,0 l/m 0,1 km/h (0 Bft) NO 36 0 min 0,000 mm 0,0 UV-I 42 W/m 0,7 C 4,0 C 3,2 km/h (1 Bft)
14.10.2015 16:15 3,9 C 79 % 1017,0 hPa 0,0 l/m 0,0 km/h (0 Bft) O-NO 60 0 min 0,000 mm 0,0 UV-I 39 W/m 0,6 C 3,9 C 1,6 km/h (1 Bft)
14.10.2015 16:20 3,9 C 79 % 1017,1 hPa 0,0 l/m 1,9 km/h (1 Bft) O 83 0 min 0,000 mm 0,0 UV-I 33 W/m 0,6 C 3,9 C 11,3 km/h (2 Bft)
14.10.2015 16:25 3,9 C 79 % 1017,1 hPa 0,0 l/m 0,7 km/h (0 Bft) O-NO 71 0 min 0,000 mm 0,0 UV-I 26 W/m 0,6 C 3,9 C 8,0 km/h (2 Bft)
14.10.2015 16:30 3,8 C 79 % 1017,1 hPa 0,0 l/m 0,9 km/h (0 Bft) NO 52 0 min 0,000 mm 0,0 UV-I 17 W/m 0,5 C 3,8 C 9,7 km/h (2 Bft)
14.10.2015 16:35 3,8 C 79 % 1017,1 hPa 0,0 l/m 0,1 km/h (0 Bft) O-NO 57 0 min 0,000 mm 0,0 UV-I 16 W/m 0,5 C 3,8 C 1,6 km/h (1 Bft)
14.10.2015 16:40 3,8 C 79 % 1017,1 hPa 0,0 l/m 0,1 km/h (0 Bft) O-NO 57 0 min 0,000 mm 0,0 UV-I 18 W/m 0,5 C 3,8 C 1,6 km/h (1 Bft)
14.10.2015 16:45 3,8 C 79 % 1017,1 hPa 0,0 l/m 1,5 km/h (1 Bft) NO 36 0 min 0,000 mm 0,0 UV-I 22 W/m 0,5 C 3,8 C 8,0 km/h (2 Bft)
14.10.2015 16:50 3,8 C 79 % 1017,1 hPa 0,0 l/m 0,0 km/h (0 Bft) NO 36 0 min 0,000 mm 0,0 UV-I 22 W/m 0,5 C 3,8 C 0,0 km/h (0 Bft)
14.10.2015 16:55 3,8 C 79 % 1017,1 hPa 0,0 l/m 0,6 km/h (0 Bft) O-NO 63 0 min 0,000 mm 0,0 UV-I 19 W/m 0,5 C 3,8 C 4,8 km/h (1 Bft)
14.10.2015 17:00 3,7 C 79 % 1017,1 hPa 0,0 l/m 1,1 km/h (1 Bft) O-NO 61 0 min 0,025 mm 0,0 UV-I 19 W/m 0,4 C 3,7 C 8,0 km/h (2 Bft)
14.10.2015 17:05 3,7 C 79 % 1017,2 hPa 0,0 l/m 1,0 km/h (0 Bft) O-NO 63 0 min 0,000 mm 0,0 UV-I 19 W/m 0,4 C 3,7 C 4,8 km/h (1 Bft)
14.10.2015 17:10 3,7 C 79 % 1017,2 hPa 0,0 l/m 0,4 km/h (0 Bft) NO 50 0 min 0,000 mm 0,0 UV-I 21 W/m 0,4 C 3,7 C 4,8 km/h (1 Bft)
14.10.2015 17:15 3,6 C 79 % 1017,2 hPa 0,0 l/m 1,7 km/h (1 Bft) O-SO 109 0 min 0,000 mm 0,0 UV-I 22 W/m 0,3 C 3,6 C 8,0 km/h (2 Bft)
14.10.2015 17:20 3,6 C 79 % 1017,2 hPa 0,0 l/m 0,5 km/h (0 Bft) O-NO 73 0 min 0,000 mm 0,0 UV-I 27 W/m 0,3 C 3,6 C 8,0 km/h (2 Bft)
14.10.2015 17:25 3,6 C 79 % 1017,2 hPa 0,0 l/m 0,0 km/h (0 Bft) O-NO 71 0 min 0,000 mm 0,0 UV-I 25 W/m 0,3 C 3,6 C 0,0 km/h (0 Bft)
14.10.2015 17:30 3,7 C 79 % 1017,2 hPa 0,0 l/m 0,8 km/h (0 Bft) O-NO 57 0 min 0,000 mm 0,0 UV-I 23 W/m 0,4 C 3,7 C 8,0 km/h (2 Bft)
14.10.2015 17:35 3,7 C 79 % 1017,3 hPa 0,0 l/m 0,1 km/h (0 Bft) N-NO 22 0 min 0,000 mm 0,0 UV-I 20 W/m 0,4 C 3,7 C 3,2 km/h (1 Bft)
14.10.2015 17:40 3,6 C 79 % 1017,3 hPa 0,0 l/m 0,7 km/h (0 Bft) O-NO 61 0 min 0,000 mm 0,0 UV-I 18 W/m 0,3 C 3,6 C 4,8 km/h (1 Bft)
14.10.2015 17:45 3,6 C 79 % 1017,3 hPa 0,0 l/m 0,2 km/h (0 Bft) NO 55 0 min 0,000 mm 0,0 UV-I 14 W/m 0,3 C 3,6 C 3,2 km/h (1 Bft)
14.10.2015 17:50 3,6 C 79 % 1017,4 hPa 0,0 l/m 0,8 km/h (0 Bft) NO 45 0 min 0,000 mm 0,0 UV-I 14 W/m 0,3 C 3,6 C 4,8 km/h (1 Bft)
14.10.2015 17:55 3,6 C 79 % 1017,4 hPa 0,0 l/m 1,1 km/h (1 Bft) NO 56 0 min 0,000 mm 0,0 UV-I 11 W/m 0,3 C 3,6 C 4,8 km/h (1 Bft)
14.10.2015 18:00 3,6 C 79 % 1017,5 hPa 0,0 l/m 0,6 km/h (0 Bft) O-NO 67 0 min 0,000 mm 0,0 UV-I 8 W/m 0,3 C 3,6 C 4,8 km/h (1 Bft)
14.10.2015 18:05 3,6 C 79 % 1017,5 hPa 0,0 l/m 0,1 km/h (0 Bft) NO 54 0 min 0,000 mm 0,0 UV-I 7 W/m 0,3 C 3,6 C 3,2 km/h (1 Bft)
14.10.2015 18:10 3,6 C 79 % 1017,5 hPa 0,0 l/m 0,6 km/h (0 Bft) N-NO 18 0 min 0,000 mm 0,0 UV-I 5 W/m 0,3 C 3,6 C 4,8 km/h (1 Bft)
14.10.2015 18:15 3,6 C 79 % 1017,5 hPa 0,0 l/m 0,5 km/h (0 Bft) NO 49 0 min 0,000 mm 0,0 UV-I 5 W/m 0,3 C 3,6 C 6,4 km/h (2 Bft)
14.10.2015 18:20 3,5 C 79 % 1017,5 hPa 0,0 l/m 0,1 km/h (0 Bft) NO 49 0 min 0,000 mm 0,0 UV-I 0 W/m 0,2 C 3,5 C 3,2 km/h (1 Bft)
14.10.2015 18:25 3,5 C 79 % 1017,5 hPa 0,0 l/m 0,0 km/h (0 Bft) NO 49 0 min 0,000 mm 0,0 UV-I 0 W/m 0,2 C 3,5 C 0,0 km/h (0 Bft)
14.10.2015 18:30 3,5 C 79 % 1017,5 hPa 0,0 l/m 0,0 km/h (0 Bft) NO 49 0 min 0,000 mm 0,0 UV-I 0 W/m 0,2 C 3,5 C 0,0 km/h (0 Bft)
14.10.2015 18:35 3,5 C 79 % 1017,6 hPa 0,0 l/m 0,0 km/h (0 Bft) NO 49 0 min 0,000 mm 0,0 UV-I 0 W/m 0,2 C 3,5 C 0,0 km/h (0 Bft)
14.10.2015 18:40 3,4 C 79 % 1017,6 hPa 0,0 l/m 0,0 km/h (0 Bft) NO 49 0 min 0,000 mm 0,0 UV-I 0 W/m 0,1 C 3,4 C 0,0 km/h (0 Bft)
14.10.2015 18:45 3,4 C 79 % 1017,6 hPa 0,0 l/m 0,0 km/h (0 Bft) NO 49 0 min 0,000 mm 0,0 UV-I 0 W/m 0,1 C 3,4 C 0,0 km/h (0 Bft)
14.10.2015 18:50 3,5 C 79 % 1017,6 hPa 0,0 l/m 0,0 km/h (0 Bft) NO 49 0 min 0,000 mm 0,0 UV-I 0 W/m 0,2 C 3,5 C 0,0 km/h (0 Bft)
14.10.2015 18:55 3,4 C 79 % 1017,7 hPa 0,0 l/m 0,0 km/h (0 Bft) NO 49 0 min 0,000 mm 0,0 UV-I 0 W/m 0,1 C 3,4 C 0,0 km/h (0 Bft)
14.10.2015 19:00 3,4 C 79 % 1017,7 hPa 0,0 l/m 0,1 km/h (0 Bft) O-NO 65 0 min 0,000 mm 0,0 UV-I 0 W/m 0,1 C 3,4 C 1,6 km/h (1 Bft)
14.10.2015 19:05 3,4 C 79 % 1017,8 hPa 0,0 l/m 0,0 km/h (0 Bft) O-NO 65 0 min 0,000 mm 0,0 UV-I 0 W/m 0,1 C 3,4 C 0,0 km/h (0 Bft)
14.10.2015 19:10 3,4 C 79 % 1017,8 hPa 0,0 l/m 0,0 km/h (0 Bft) O-NO 65 0 min 0,000 mm 0,0 UV-I 0 W/m 0,1 C 3,4 C 0,0 km/h (0 Bft)
14.10.2015 19:15 3,3 C 79 % 1017,8 hPa 0,0 l/m 0,2 km/h (0 Bft) O-NO 61 0 min 0,000 mm 0,0 UV-I 0 W/m 0,0 C 3,3 C 3,2 km/h (1 Bft)
14.10.2015 19:20 3,3 C 79 % 1017,8 hPa 0,0 l/m 0,0 km/h (0 Bft) O-NO 61 0 min 0,000 mm 0,0 UV-I 0 W/m 0,0 C 3,3 C 0,0 km/h (0 Bft)
14.10.2015 19:25 3,3 C 79 % 1017,8 hPa 0,0 l/m 0,0 km/h (0 Bft) O-NO 61 0 min 0,000 mm 0,0 UV-I 0 W/m 0,0 C 3,3 C 0,0 km/h (0 Bft)
14.10.2015 19:30 3,3 C 79 % 1017,8 hPa 0,0 l/m 0,5 km/h (0 Bft) NO 54 0 min 0,000 mm 0,0 UV-I 0 W/m 0,0 C 3,3 C 4,8 km/h (1 Bft)
14.10.2015 19:35 3,3 C 79 % 1017,8 hPa 0,0 l/m 0,0 km/h (0 Bft) NO 54 0 min 0,000 mm 0,0 UV-I 0 W/m 0,0 C 3,3 C 0,0 km/h (0 Bft)
14.10.2015 19:40 3,3 C 79 % 1017,8 hPa 0,0 l/m 0,0 km/h (0 Bft) NO 54 0 min 0,000 mm 0,0 UV-I 0 W/m 0,0 C 3,3 C 0,0 km/h (0 Bft)
14.10.2015 19:45 3,3 C 79 % 1017,9 hPa 0,0 l/m 0,1 km/h (0 Bft) O-NO 62 0 min 0,000 mm 0,0 UV-I 0 W/m 0,0 C 3,3 C 1,6 km/h (1 Bft)
14.10.2015 19:50 3,3 C 79 % 1017,9 hPa 0,0 l/m 0,0 km/h (0 Bft) N-NO 30 0 min 0,000 mm 0,0 UV-I 0 W/m 0,0 C 3,3 C 0,0 km/h (0 Bft)
14.10.2015 19:55 3,4 C 79 % 1017,9 hPa 0,0 l/m 0,0 km/h (0 Bft) N-NO 30 0 min 0,000 mm 0,0 UV-I 0 W/m 0,1 C 3,4 C 0,0 km/h (0 Bft)
14.10.2015 20:00 3,4 C 79 % 1017,9 hPa 0,0 l/m 0,0 km/h (0 Bft) NO 45 0 min 0,000 mm 0,0 UV-I 0 W/m 0,1 C 3,4 C 1,6 km/h (1 Bft)
14.10.2015 20:05 3,3 C 79 % 1018,0 hPa 0,0 l/m 0,0 km/h (0 Bft) O 101 0 min 0,000 mm 0,0 UV-I 0 W/m 0,0 C 3,3 C 0,0 km/h (0 Bft)
14.10.2015 20:10 3,3 C 79 % 1018,0 hPa 0,0 l/m 0,0 km/h (0 Bft) O-NO 78 0 min 0,000 mm 0,0 UV-I 0 W/m 0,0 C 3,3 C 3,2 km/h (1 Bft)
14.10.2015 20:15 3,3 C 79 % 1018,1 hPa 0,0 l/m 0,4 km/h (0 Bft) O-NO 65 0 min 0,000 mm 0,0 UV-I 0 W/m 0,0 C 3,3 C 6,4 km/h (2 Bft)
14.10.2015 20:20 3,3 C 79 % 1018,0 hPa 0,0 l/m 0,0 km/h (0 Bft) NW 319 0 min 0,000 mm 0,0 UV-I 0 W/m 0,0 C 3,3 C 0,0 km/h (0 Bft)
14.10.2015 20:25 3,3 C 79 % 1018,0 hPa 0,0 l/m 1,1 km/h (1 Bft) O 81 0 min 0,000 mm 0,0 UV-I 0 W/m 0,0 C 3,3 C 8,0 km/h (2 Bft)
14.10.2015 20:30 3,3 C 79 % 1018,1 hPa 0,0 l/m 0,3 km/h (0 Bft) NO 53 0 min 0,000 mm 0,0 UV-I 0 W/m 0,0 C 3,3 C 4,8 km/h (1 Bft)
14.10.2015 20:35 3,3 C 79 % 1018,2 hPa 0,0 l/m 0,3 km/h (0 Bft) O-NO 75 0 min 0,000 mm 0,0 UV-I 0 W/m 0,0 C 3,3 C 3,2 km/h (1 Bft)
14.10.2015 20:40 3,3 C 79 % 1018,3 hPa 0,0 l/m 2,4 km/h (1 Bft) NO 38 0 min 0,000 mm 0,0 UV-I 0 W/m 0,0 C 3,3 C 9,7 km/h (2 Bft)
14.10.2015 20:45 3,3 C 79 % 1018,3 hPa 0,0 l/m 0,8 km/h (0 Bft) O-NO 59 0 min 0,000 mm 0,0 UV-I 0 W/m 0,0 C 3,3 C 4,8 km/h (1 Bft)
14.10.2015 20:50 3,3 C 79 % 1018,3 hPa 0,0 l/m 1,2 km/h (1 Bft) O-NO 59 0 min 0,000 mm 0,0 UV-I 0 W/m 0,0 C 3,3 C 8,0 km/h (2 Bft)
14.10.2015 20:55 3,3 C 79 % 1018,4 hPa 0,0 l/m 0,8 km/h (0 Bft) O-NO 57 0 min 0,000 mm 0,0 UV-I 0 W/m 0,0 C 3,3 C 4,8 km/h (1 Bft)
14.10.2015 21:00 3,3 C 79 % 1018,4 hPa 0,0 l/m 0,0 km/h (0 Bft) NO 53 0 min 0,000 mm 0,0 UV-I 0 W/m 0,0 C 3,3 C 0,0 km/h (0 Bft)
14.10.2015 21:05 3,3 C 78 % 1018,4 hPa 0,0 l/m 0,2 km/h (0 Bft) N-NO 32 0 min 0,000 mm 0,0 UV-I 0 W/m -0,2 C 3,3 C 4,8 km/h (1 Bft)
14.10.2015 21:10 3,3 C 79 % 1018,4 hPa 0,0 l/m 0,6 km/h (0 Bft) O-NO 64 0 min 0,000 mm 0,0 UV-I 0 W/m 0,0 C 3,3 C 8,0 km/h (2 Bft)
14.10.2015 21:15 3,3 C 79 % 1018,5 hPa 0,0 l/m 0,2 km/h (0 Bft) O-NO 64 0 min 0,000 mm 0,0 UV-I 0 W/m 0,0 C 3,3 C 4,8 km/h (1 Bft)
14.10.2015 21:20 3,3 C 78 % 1018,4 hPa 0,0 l/m 0,1 km/h (0 Bft) NO 54 0 min 0,000 mm 0,0 UV-I 0 W/m -0,2 C 3,3 C 3,2 km/h (1 Bft)
14.10.2015 21:25 3,3 C 78 % 1018,4 hPa 0,0 l/m 3,1 km/h (1 Bft) NO 56 0 min 0,000 mm 0,0 UV-I 0 W/m -0,2 C 3,3 C 12,9 km/h (3 Bft)
14.10.2015 21:30 3,2 C 78 % 1018,5 hPa 0,0 l/m 0,9 km/h (0 Bft) O-NO 67 0 min 0,000 mm 0,0 UV-I 0 W/m -0,3 C 3,2 C 8,0 km/h (2 Bft)
14.10.2015 21:35 3,3 C 78 % 1018,5 hPa 0,0 l/m 0,8 km/h (0 Bft) N-NO 19 0 min 0,000 mm 0,0 UV-I 0 W/m -0,2 C 3,3 C 4,8 km/h (1 Bft)
14.10.2015 21:40 3,2 C 78 % 1018,6 hPa 0,0 l/m 1,0 km/h (0 Bft) O-NO 68 0 min 0,000 mm 0,0 UV-I 0 W/m -0,3 C 3,2 C 6,4 km/h (2 Bft)
14.10.2015 21:45 3,2 C 78 % 1018,6 hPa 0,0 l/m 1,3 km/h (1 Bft) NO 51 0 min 0,000 mm 0,0 UV-I 0 W/m -0,3 C 3,2 C 6,4 km/h (2 Bft)
14.10.2015 21:50 3,2 C 78 % 1018,6 hPa 0,0 l/m 1,6 km/h (1 Bft) NO 46 0 min 0,000 mm 0,0 UV-I 0 W/m -0,3 C 3,2 C 8,0 km/h (2 Bft)
14.10.2015 21:55 3,2 C 78 % 1018,7 hPa 0,0 l/m 0,7 km/h (0 Bft) O-NO 63 0 min 0,000 mm 0,0 UV-I 0 W/m -0,3 C 3,2 C 4,8 km/h (1 Bft)
14.10.2015 22:00 3,2 C 78 % 1018,7 hPa 0,0 l/m 1,0 km/h (0 Bft) NO 53 0 min 0,026 mm 0,0 UV-I 0 W/m -0,3 C 3,2 C 6,4 km/h (2 Bft)
14.10.2015 22:05 3,2 C 78 % 1018,7 hPa 0,0 l/m 1,9 km/h (1 Bft) NO 50 0 min 0,000 mm 0,0 UV-I 0 W/m -0,3 C 3,2 C 11,3 km/h (2 Bft)
14.10.2015 22:10 3,2 C 78 % 1018,8 hPa 0,0 l/m 3,2 km/h (1 Bft) O-NO 63 0 min 0,000 mm 0,0 UV-I 0 W/m -0,3 C 3,2 C 12,9 km/h (3 Bft)
14.10.2015 22:15 3,2 C 78 % 1018,9 hPa 0,0 l/m 2,9 km/h (1 Bft) N 5 0 min 0,000 mm 0,0 UV-I 0 W/m -0,3 C 3,2 C 9,7 km/h (2 Bft)
14.10.2015 22:20 3,2 C 78 % 1018,9 hPa 0,0 l/m 4,3 km/h (1 Bft) NO 46 0 min 0,000 mm 0,0 UV-I 0 W/m -0,3 C 3,2 C 12,9 km/h (3 Bft)
14.10.2015 22:25 3,1 C 78 % 1018,9 hPa 0,0 l/m 2,4 km/h (1 Bft) O-NO 62 0 min 0,000 mm 0,0 UV-I 0 W/m -0,4 C 3,1 C 11,3 km/h (2 Bft)
14.10.2015 22:30 3,1 C 78 % 1019,0 hPa 0,0 l/m 0,4 km/h (0 Bft) NO 53 0 min 0,000 mm 0,0 UV-I 0 W/m -0,4 C 3,1 C 8,0 km/h (2 Bft)
14.10.2015 22:35 3,2 C 78 % 1018,9 hPa 0,0 l/m 0,0 km/h (0 Bft) NO 54 0 min 0,000 mm 0,0 UV-I 0 W/m -0,3 C 3,2 C 0,0 km/h (0 Bft)
14.10.2015 22:40 3,2 C 78 % 1018,9 hPa 0,0 l/m 0,1 km/h (0 Bft) O-NO 64 0 min 0,000 mm 0,0 UV-I 0 W/m -0,3 C 3,2 C 3,2 km/h (1 Bft)
14.10.2015 22:45 3,1 C 78 % 1018,9 hPa 0,0 l/m 0,3 km/h (0 Bft) O-NO 60 0 min 0,000 mm 0,0 UV-I 0 W/m -0,4 C 3,1 C 6,4 km/h (2 Bft)
14.10.2015 22:50 3,1 C 78 % 1018,9 hPa 0,0 l/m 1,2 km/h (1 Bft) O-NO 60 0 min 0,000 mm 0,0 UV-I 0 W/m -0,4 C 3,1 C 6,4 km/h (2 Bft)
14.10.2015 22:55 3,1 C 78 % 1018,9 hPa 0,0 l/m 0,2 km/h (0 Bft) NO 50 0 min 0,000 mm 0,0 UV-I 0 W/m -0,4 C 3,1 C 3,2 km/h (1 Bft)
14.10.2015 23:00 3,1 C 78 % 1018,9 hPa 0,0 l/m 1,0 km/h (0 Bft) O-NO 59 0 min 0,025 mm 0,0 UV-I 0 W/m -0,4 C 3,1 C 8,0 km/h (2 Bft)
14.10.2015 23:05 3,1 C 78 % 1018,9 hPa 0,0 l/m 2,2 km/h (1 Bft) NO 41 0 min 0,000 mm 0,0 UV-I 0 W/m -0,4 C 3,1 C 12,9 km/h (3 Bft)
14.10.2015 23:10 3,1 C 78 % 1018,9 hPa 0,0 l/m 1,8 km/h (1 Bft) O-NO 72 0 min 0,000 mm 0,0 UV-I 0 W/m -0,4 C 3,1 C 8,0 km/h (2 Bft)
14.10.2015 23:15 3,1 C 78 % 1018,8 hPa 0,0 l/m 1,8 km/h (1 Bft) NO 44 0 min 0,000 mm 0,0 UV-I 0 W/m -0,4 C 3,1 C 11,3 km/h (2 Bft)
14.10.2015 23:20 3,1 C 78 % 1018,8 hPa 0,0 l/m 0,0 km/h (0 Bft) O-NO 67 0 min 0,000 mm 0,0 UV-I 0 W/m -0,4 C 3,1 C 0,0 km/h (0 Bft)
14.10.2015 23:25 3,1 C 78 % 1018,7 hPa 0,0 l/m 0,0 km/h (0 Bft) O-NO 65 0 min 0,000 mm 0,0 UV-I 0 W/m -0,4 C 3,1 C 0,0 km/h (0 Bft)
14.10.2015 23:30 3,1 C 78 % 1018,7 hPa 0,0 l/m 0,0 km/h (0 Bft) O-NO 65 0 min 0,000 mm 0,0 UV-I 0 W/m -0,4 C 3,1 C 0,0 km/h (0 Bft)
14.10.2015 23:35 3,2 C 78 % 1018,6 hPa 0,0 l/m 1,6 km/h (1 Bft) NO 55 0 min 0,000 mm 0,0 UV-I 0 W/m -0,3 C 3,2 C 12,9 km/h (3 Bft)
14.10.2015 23:40 3,2 C 78 % 1018,7 hPa 0,0 l/m 0,0 km/h (0 Bft) O-NO 61 0 min 0,000 mm 0,0 UV-I 0 W/m -0,3 C 3,2 C 0,0 km/h (0 Bft)
14.10.2015 23:45 3,2 C 78 % 1018,6 hPa 0,0 l/m 1,1 km/h (1 Bft) O-NO 74 0 min 0,000 mm 0,0 UV-I 0 W/m -0,3 C 3,2 C 8,0 km/h (2 Bft)
14.10.2015 23:50 3,2 C 78 % 1018,5 hPa 0,0 l/m 0,4 km/h (0 Bft) NO 53 0 min 0,000 mm 0,0 UV-I 0 W/m -0,3 C 3,2 C 4,8 km/h (1 Bft)
14.10.2015 23:55 3,2 C 78 % 1018,5 hPa 0,0 l/m 0,4 km/h (0 Bft) NO 49 0 min 0,000 mm 0,0 UV-I 0 W/m -0,3 C 3,2 C 6,4 km/h (2 Bft)
_ Min-Zeit 06:30 00:00 14:10 - 00:00 - - - - - - 06:35 06:35 00:00
Minimum _ 2,4 C 78 % 1016,9 hPa - 0,0 km/h (0 Bft) - - - - - - -1,0 C 2,4 C 0,0 km/h (0 Bft)
_ Max-Zeit 15:15 11:45 22:30 00:05 22:20 - - 00:00 12:00 11:30 11:30 16:00 16:00 12:10
Maximum _ 4,0 C 79 % 1019,0 hPa 0,2 l/m 4,3 km/h
NO (1 Bft)
- - 0 min 0,051 mm 0,7 UV-I 127 W/m 0,7 C 4,0 C 16,1 km/h
O-NO (3 Bft)
Durchschnitt _ 3,2 C 78 % 1017,7 hPa #1,2 l/m 0,6 km/h (0 Bft) NO - #0 min. #0,254 mm 0,5 UV-I 50 W/m -0,2 C 3,2 C 4,5 km/h (1 Bft)